User: anonymous   Login
Location: Oshawa
(43.9000°N, 78.8670°W)
Time: 09:28:24
(UTC-04:00)
Language:

Explorer 7 - Orbit

View from above orbital plane
View from above orbital plane
View from above satellite
View from above satellite

Ground track
Ground track

The orbit data is extracted from the following two-line orbital elements,

1 00022U 59009A   16274.20251148  .00000958  00000-0  96845-4 0  9998
2 00022  50.2852 339.8647 0143083 121.7736 239.7241 14.93746065 22483
Epoch (UTC): 30 September 2016 04:51:36
Eccentricity: 0.0143083
inclination: 50.2852°
perigee height: 486 km
apogee height: 686 km
right ascension of ascending node: 339.8647°
argument of perigee: 121.7736°
revolutions per day: 14.93746065
mean anomaly at epoch: 239.7241°
orbit number at epoch: 2248

The dashed part of the orbit path shows where the satellite is in the earth's shadow,  

DLR